Scottsbluff, NE

5:07 AM MDT on October 14, 2019 (GMT -0600)
Heilig

Weather History for KBFF - August, 2019

Change the Weather History Date:

Friday, August 2, 2019

  Actual Average Record
Temperature  
Mean Temperature 78 °F -  
Max Temperature 91 °F 87 °F 104 °F (1938)
Min Temperature 64 °F 58 °F 47 °F (1934)
Cooling Degree Days 12    
Growing Degree Days 28 (Base 50)    
Moisture  
Dew Point 64 °F    
Average Humidity 78    
Maximum Humidity 100    
Minimum Humidity 30    
Precipitation  
Precipitation 0.00 in - - ()
Sea Level Pressure  
Sea Level Pressure 30.04 in    
Wind  
Wind Speed 5 mph (ENE)    
Max Wind Speed 9 mph    
Max Gust Speed -    
Visibility 7 miles    
Events Fog    
Averages and records for this station are not official NWS values.
T = Trace of Precipitation, MM = Missing Value Source: NWS Daily Summary

Daily Weather History Graph

Daily Weather History Graph

Search for Another Location

Airport or City:

Astronomy

Aug. 02, 2019 Rise Set
Actual Time 5:49 AM MDT 8:11 PM MDT
Civil Twilight 5:17 AM MDT 8:42 PM MDT
Nautical Twilight 4:38 AM MDT 9:21 PM MDT
Astronomical Twilight 3:55 AM MDT 10:04 PM MDT
Moon 7:31 AM MDT (8/2) 9:40 PM MDT (8/2)
Length of Visible Light 15h 25m
Length of Day
14h 22m
Waxing Crescent, 4% of the Moon is Illuminated
Aug 2
Waxing Crescent
Aug 7
First Quarter
Aug 15
Full
Aug 23
Last Quarter
Aug 30
New

Hourly Weather History & Observations

Time (MDT) Temp. Heat Index Dew Point Humidity Pressure Visibility Wind Dir Wind Speed Gust Speed Precip Events Conditions
12:53 AM 68.0 °F - 66.0 °F 93% 30.01 in 10.0 mi East 4.6 mph - N/A   Mostly Cloudy
1:53 AM 66.9 °F - 66.0 °F 97% 29.99 in 9.0 mi SE 3.5 mph - N/A   Partly Cloudy
2:53 AM 66.9 °F - 66.0 °F 97% 29.97 in 6.0 mi ESE 6.9 mph - N/A   Mostly Cloudy
3:11 AM 66.9 °F - 66.0 °F 97% 30.10 in 3.0 mi ESE 8.1 mph - N/A   Mostly Cloudy
3:53 AM 64.9 °F - 64.9 °F 100% 29.96 in 7.0 mi SE 3.5 mph - N/A   Clear
4:05 AM 64.9 °F - 64.0 °F 97% 30.09 in 1.5 mi East 4.6 mph - N/A   Partly Cloudy
4:10 AM 64.9 °F - 64.9 °F 100% 30.09 in 0.2 mi East 4.6 mph - N/A Fog Fog
4:40 AM 64.9 °F - 64.9 °F 100% 30.09 in 0.5 mi East 5.8 mph - N/A Fog Fog
4:53 AM 64.9 °F - 64.9 °F 100% 29.97 in 0.2 mi ESE 6.9 mph - N/A Fog Fog
5:31 AM 64.9 °F - 64.9 °F 100% 30.11 in 0.5 mi East 4.6 mph - N/A Fog Fog
5:53 AM 64.9 °F - 64.9 °F 100% 29.99 in 0.2 mi East 5.8 mph - N/A Fog Fog
6:00 AM 64.9 °F - 64.9 °F 100% 30.12 in 0.8 mi NE 4.6 mph - N/A   Overcast
6:24 AM 66.0 °F - 66.0 °F 100% 30.13 in 0.2 mi East 3.5 mph - N/A Fog Fog
6:45 AM 66.0 °F - 66.0 °F 100% 30.14 in 0.8 mi ENE 3.5 mph - N/A   Overcast
6:53 AM 66.0 °F - 66.0 °F 100% 30.02 in 1.0 mi Calm Calm - N/A   Overcast
7:03 AM 66.0 °F - 64.9 °F 96% 30.14 in 3.0 mi SSE 3.5 mph - N/A   Overcast
7:53 AM 68.0 °F - 64.9 °F 90% 30.03 in 9.0 mi Calm Calm - N/A   Overcast
8:53 AM 70.0 °F - 64.9 °F 84% 30.04 in 10.0 mi Calm Calm - N/A   Overcast
9:27 AM 70.0 °F - 64.9 °F 84% 30.16 in 10.0 mi Calm Calm - N/A   Overcast
9:53 AM 73.0 °F - 64.9 °F 76% 30.04 in 10.0 mi Calm Calm - N/A   Scattered Clouds
10:38 AM 75.9 °F - 64.9 °F 69% 30.17 in 10.0 mi WNW 5.8 mph - N/A   Mostly Cloudy
10:53 AM 77.0 °F - 64.9 °F 66% 30.03 in 10.0 mi WNW 4.6 mph - N/A   Overcast
11:44 AM 81.0 °F 83.0 °F 66.0 °F 60% 30.16 in 10.0 mi WNW 6.9 mph - N/A   Scattered Clouds
11:53 AM 80.1 °F 82.1 °F 66.0 °F 62% 30.02 in 10.0 mi NNW 4.6 mph - N/A   Partly Cloudy
12:53 PM 84.9 °F 87.1 °F 66.0 °F 53% 30.01 in 10.0 mi NW 9.2 mph - N/A   Clear
1:53 PM 87.1 °F 89.2 °F 66.0 °F 49% 30.00 in 10.0 mi Calm Calm - N/A   Partly Cloudy
2:53 PM 89.1 °F 88.8 °F 60.1 °F 38% 29.98 in 10.0 mi NNE 5.8 mph - N/A   Scattered Clouds
3:53 PM 90.0 °F 89.7 °F 60.1 °F 37% 29.97 in 10.0 mi NE 9.2 mph - N/A   Clear
4:53 PM 89.1 °F 89.0 °F 61.0 °F 39% 29.98 in 10.0 mi ENE 6.9 mph - N/A   Clear
5:53 PM 87.1 °F 86.7 °F 60.1 °F 40% 29.98 in 10.0 mi NE 8.1 mph - N/A   Clear
6:53 PM 82.9 °F 83.3 °F 61.0 °F 47% 29.99 in 10.0 mi East 8.1 mph - N/A   Clear
7:53 PM 77.0 °F - 64.9 °F 66% 30.01 in 10.0 mi ENE 5.8 mph - N/A   Clear
8:53 PM 71.1 °F - 63.0 °F 75% 30.04 in 10.0 mi ENE 8.1 mph - N/A   Clear
9:53 PM 69.1 °F - 62.1 °F 78% 30.06 in 10.0 mi ENE 8.1 mph - N/A   Clear
10:53 PM 66.9 °F - 61.0 °F 81% 30.06 in 10.0 mi SSE 3.5 mph - N/A   Clear
11:53 PM 66.0 °F - 61.0 °F 84% 30.08 in 10.0 mi Calm Calm - N/A   Clear